User: anonymous   Login
Location: Dompnac
(44.5644°N, 4.1026°E)
Time: 13:02:04
(UTC+00:00)
Language:

Cosmos 1300 Rocket - Orbit

View from above orbital plane
View from above orbital plane
View from above satellite
View from above satellite

Ground track
Ground track

The orbit data is extracted from the following two-line orbital elements,

1 12786U 81082B   20330.82161727 +.00000099 +00000-0 +87176-5 0  9997
2 12786 082.4908 222.2996 0018959 065.1690 295.1495 14.84805853100336
Epoch (UTC): 25 November 2020 19:43:07
Eccentricity: 0.0018959
inclination: 82.4908°
perigee height: 601 km
apogee height: 627 km
right ascension of ascending node: 222.2996°
argument of perigee: 65.1690°
revolutions per day: 14.84805853
mean anomaly at epoch: 295.1495°
orbit number at epoch: 10033

The dashed part of the orbit path shows where the satellite is in the earth's shadow,  

DLR